TimeEST,TemperatureF,Dew PointF,Humidity,Sea Level PressureIn,VisibilityMPH,Wind Direction,Wind SpeedMPH,Gust SpeedMPH,PrecipitationIn,Events,Conditions,WindDirDegrees,DateUTC
12:53 AM,33.1,26.1,75,29.87,10.0,WSW,6.9,-,N/A,,Clear,250,2013-02-13 05:53:00
1:53 AM,34.0,26.1,73,29.86,10.0,West,6.9,-,N/A,,Clear,270,2013-02-13 06:53:00
2:53 AM,34.0,23.0,64,29.87,10.0,West,6.9,-,N/A,,Clear,280,2013-02-13 07:53:00
3:53 AM,34.0,23.0,64,29.88,10.0,West,8.1,-,N/A,,Clear,260,2013-02-13 08:53:00
4:53 AM,34.0,23.0,64,29.88,10.0,WNW,8.1,-,N/A,,Clear,290,2013-02-13 09:53:00
5:53 AM,33.1,21.9,64,29.86,10.0,WNW,10.4,19.6,N/A,,Clear,300,2013-02-13 10:53:00
6:53 AM,32.0,21.9,66,29.87,10.0,WNW,8.1,-,N/A,,Clear,300,2013-02-13 11:53:00
7:53 AM,34.0,23.0,64,29.88,10.0,West,5.8,-,N/A,,Clear,280,2013-02-13 12:53:00
8:53 AM,37.0,23.0,57,29.89,10.0,WNW,6.9,-,N/A,,Clear,290,2013-02-13 13:53:00
9:53 AM,39.0,23.0,53,29.87,10.0,West,9.2,-,N/A,,Clear,280,2013-02-13 14:53:00
10:53 AM,39.0,21.9,50,29.86,10.0,Variable,3.5,-,N/A,,Clear,0,2013-02-13 15:53:00
11:53 AM,39.0,21.9,50,29.85,10.0,West,3.5,-,N/A,,Clear,280,2013-02-13 16:53:00
12:53 PM,39.9,24.1,53,29.83,10.0,SSW,10.4,-,N/A,,Clear,210,2013-02-13 17:53:00
1:53 PM,39.9,24.1,53,29.81,10.0,SSW,8.1,-,N/A,,Clear,210,2013-02-13 18:53:00
2:53 PM,37.9,25.0,60,29.80,10.0,SSW,8.1,-,N/A,,Clear,210,2013-02-13 19:53:00
3:53 PM,39.0,24.1,55,29.77,10.0,SW,5.8,-,N/A,,Clear,220,2013-02-13 20:53:00
4:53 PM,34.0,25.0,70,29.77,10.0,SW,6.9,-,N/A,,Clear,220,2013-02-13 21:53:00
5:53 PM,33.1,26.1,75,29.76,10.0,Calm,Calm,-,N/A,,Clear,0,2013-02-13 22:53:00
6:53 PM,28.9,24.1,82,29.76,10.0,South,3.5,-,N/A,,Clear,170,2013-02-13 23:53:00
7:53 PM,28.0,25.0,88,29.73,10.0,ENE,3.5,-,N/A,,Clear,60,2013-02-14 00:53:00
8:53 PM,30.9,28.0,89,29.73,10.0,Calm,Calm,-,N/A,,Mostly Cloudy,0,2013-02-14 01:53:00
9:53 PM,32.0,28.9,88,29.71,10.0,Calm,Calm,-,N/A,,Overcast,0,2013-02-14 02:53:00
10:53 PM,33.1,28.9,85,29.65,10.0,NNE,5.8,-,N/A,,Overcast,30,2013-02-14 03:53:00
11:53 PM,34.0,28.9,82,29.68,10.0,NNE,5.8,-,N/A,,Overcast,30,2013-02-14 04:53:00